Time,TemperatureF,DewpointF,PressureIn,WindDirection,WindDirectionDegrees,WindSpeedMPH,WindSpeedGustMPH,Humidity,HourlyPrecipIn,Conditions,Clouds,dailyrainin,SoftwareType,DateUTC
2015-05-05 00:02:00,66.0,60.3,30.19,WNW,282,3.0,12.0,82,0.28,,,0.03,Wunderground v.1.15,2015-05-05 04:02:00,
2015-05-05 00:07:00,65.2,60.6,30.19,West,261,3.0,12.0,85,0.24,,,0.05,Wunderground v.1.15,2015-05-05 04:07:00,
2015-05-05 00:13:00,64.3,60.7,30.19,NNW,342,5.0,5.0,88,0.20,,,0.07,Wunderground v.1.15,2015-05-05 04:13:00,
2015-05-05 00:18:00,63.9,60.6,30.19,North,9,0.0,5.0,89,0.14,,,0.09,Wunderground v.1.15,2015-05-05 04:18:00,
2015-05-05 00:24:00,63.4,60.4,30.19,West,278,0.0,2.0,90,0.40,,,0.13,Wunderground v.1.15,2015-05-05 04:24:00,
2015-05-05 00:30:00,62.9,59.9,30.19,NW,315,0.0,1.0,90,0.21,,,0.15,Wunderground v.1.15,2015-05-05 04:30:00,
2015-05-05 00:35:00,62.6,59.9,30.18,NW,315,0.0,1.0,91,0.26,,,0.17,Wunderground v.1.15,2015-05-05 04:35:00,
2015-05-05 00:41:00,62.4,60.0,30.18,NW,315,0.0,0.0,92,0.13,,,0.18,Wunderground v.1.15,2015-05-05 04:41:00,
2015-05-05 00:46:00,62.3,59.9,30.18,NW,315,0.0,0.0,92,0.13,,,0.19,Wunderground v.1.15,2015-05-05 04:46:00,
2015-05-05 00:52:00,62.3,60.2,30.18,NW,315,0.0,0.0,93,0.16,,,0.21,Wunderground v.1.15,2015-05-05 04:52:00,
2015-05-05 00:58:00,62.4,60.3,30.18,NW,315,0.0,2.0,93,0.15,,,0.22,Wunderground v.1.15,2015-05-05 04:58:00,
2015-05-05 01:03:00,62.3,60.6,30.18,NW,315,0.0,0.0,94,0.12,,,0.23,Wunderground v.1.15,2015-05-05 05:03:00,
2015-05-05 01:09:00,62.1,60.4,30.17,NNE,13,0.0,1.0,94,0.05,,,0.23,Wunderground v.1.15,2015-05-05 05:09:00,
2015-05-05 01:15:00,62.1,60.7,30.17,NNE,13,0.0,0.0,95,0.00,,,0.23,Wunderground v.1.15,2015-05-05 05:15:00,
2015-05-05 01:20:00,62.1,60.7,30.17,NE,42,0.0,0.0,95,0.00,,,0.24,Wunderground v.1.15,2015-05-05 05:20:00,
2015-05-05 01:26:00,62.1,60.7,30.17,NE,42,0.0,0.0,95,0.00,,,0.24,Wunderground v.1.15,2015-05-05 05:26:00,
2015-05-05 01:31:00,62.1,60.9,30.17,WNW,296,2.0,2.0,96,0.00,,,0.24,Wunderground v.1.15,2015-05-05 05:31:00,
2015-05-05 01:37:00,62.1,60.9,30.20,NW,322,0.0,3.0,96,0.05,,,0.25,Wunderground v.1.15,2015-05-05 05:37:00,
2015-05-05 01:43:00,62.3,61.1,30.20,NNE,14,1.0,7.0,96,0.05,,,0.25,Wunderground v.1.15,2015-05-05 05:43:00,
2015-05-05 01:48:00,62.1,60.9,30.20,NNE,18,0.0,7.0,96,0.04,,,0.25,Wunderground v.1.15,2015-05-05 05:48:00,
2015-05-05 01:54:00,62.0,60.8,30.18,NNE,21,0.0,1.0,96,0.00,,,0.26,Wunderground v.1.15,2015-05-05 05:54:00,
2015-05-05 01:59:00,62.0,60.8,30.18,NNW,331,0.0,1.0,96,0.11,,,0.27,Wunderground v.1.15,2015-05-05 05:59:00,
2015-05-05 02:04:00,62.0,60.8,30.18,NNW,331,0.0,4.0,96,0.07,,,0.27,Wunderground v.1.15,2015-05-05 06:04:00,
2015-05-05 02:09:00,62.0,60.8,30.18,NE,46,1.0,4.0,96,0.04,,,0.27,Wunderground v.1.15,2015-05-05 06:09:00,
2015-05-05 02:14:00,61.8,60.9,30.18,NE,46,0.0,1.0,97,0.00,,,0.27,Wunderground v.1.15,2015-05-05 06:14:00,
2015-05-05 02:19:00,61.6,60.7,30.18,NNE,32,0.0,1.0,97,0.00,,,0.27,Wunderground v.1.15,2015-05-05 06:19:00,
2015-05-05 02:24:00,61.6,60.7,30.17,NE,34,0.0,2.0,97,0.00,,,0.27,Wunderground v.1.15,2015-05-05 06:24:00,
2015-05-05 02:29:00,61.6,60.7,30.17,NE,34,0.0,2.0,97,0.00,,,0.27,Wunderground v.1.15,2015-05-05 06:29:00,
2015-05-05 02:34:00,61.6,60.7,30.17,NE,34,0.0,0.0,97,0.00,,,0.27,Wunderground v.1.15,2015-05-05 06:34:00,
2015-05-05 02:39:00,61.5,60.6,30.18,NE,34,0.0,0.0,97,0.00,,,0.27,Wunderground v.1.15,2015-05-05 06:39:00,
2015-05-05 02:44:00,61.5,60.6,30.18,NE,34,0.0,2.0,97,0.00,,,0.27,Wunderground v.1.15,2015-05-05 06:44:00,
2015-05-05 02:49:00,61.5,60.6,30.18,NE,34,0.0,2.0,97,0.00,,,0.27,Wunderground v.1.15,2015-05-05 06:49:00,
2015-05-05 02:54:00,61.5,60.6,30.16,NE,34,0.0,0.0,97,0.00,,,0.27,Wunderground v.1.15,2015-05-05 06:54:00,
2015-05-05 02:59:00,61.3,60.4,30.16,NE,34,0.0,0.0,97,0.00,,,0.27,Wunderground v.1.15,2015-05-05 06:59:00,
2015-05-05 03:04:00,61.3,60.4,30.16,NE,34,0.0,0.0,97,0.00,,,0.27,Wunderground v.1.15,2015-05-05 07:04:00,
2015-05-05 03:09:00,61.2,60.3,30.16,NE,34,0.0,0.0,97,0.00,,,0.27,Wunderground v.1.15,2015-05-05 07:09:00,
2015-05-05 03:14:00,61.2,60.3,30.16,NE,34,0.0,0.0,97,0.00,,,0.27,Wunderground v.1.15,2015-05-05 07:14:00,
2015-05-05 03:19:00,61.2,60.3,30.16,NE,34,0.0,0.0,97,0.00,,,0.27,Wunderground v.1.15,2015-05-05 07:19:00,
2015-05-05 03:24:00,61.2,60.3,30.16,NE,34,0.0,0.0,97,0.00,,,0.27,Wunderground v.1.15,2015-05-05 07:24:00,
2015-05-05 03:29:00,61.2,60.6,30.16,NE,35,0.0,2.0,98,0.00,,,0.27,Wunderground v.1.15,2015-05-05 07:29:00,
2015-05-05 03:34:00,61.2,60.6,30.16,NE,35,0.0,0.0,98,0.00,,,0.27,Wunderground v.1.15,2015-05-05 07:34:00,
2015-05-05 03:40:00,61.2,60.6,30.16,NE,35,0.0,0.0,98,0.00,,,0.27,Wunderground v.1.15,2015-05-05 07:40:00,
2015-05-05 03:45:00,61.2,60.6,30.16,NE,35,0.0,0.0,98,0.00,,,0.27,Wunderground v.1.15,2015-05-05 07:45:00,
2015-05-05 03:50:00,61.2,60.6,30.16,NE,35,0.0,0.0,98,0.00,,,0.27,Wunderground v.1.15,2015-05-05 07:50:00,
2015-05-05 03:55:00,61.2,60.6,30.16,NE,35,0.0,0.0,98,0.00,,,0.27,Wunderground v.1.15,2015-05-05 07:55:00,
2015-05-05 04:00:00,61.2,60.6,30.16,NE,35,0.0,0.0,98,0.00,,,0.27,Wunderground v.1.15,2015-05-05 08:00:00,
2015-05-05 04:05:00,61.2,60.6,30.18,NE,46,0.0,4.0,98,0.00,,,0.27,Wunderground v.1.15,2015-05-05 08:05:00,
2015-05-05 04:10:00,61.2,60.6,30.18,NE,46,0.0,0.0,98,0.00,,,0.27,Wunderground v.1.15,2015-05-05 08:10:00,
2015-05-05 04:15:00,61.0,60.4,30.18,NE,46,0.0,0.0,98,0.00,,,0.27,Wunderground v.1.15,2015-05-05 08:15:00,
2015-05-05 04:20:00,61.0,60.4,30.18,NE,46,0.0,0.0,98,0.00,,,0.27,Wunderground v.1.15,2015-05-05 08:20:00,
2015-05-05 04:25:00,61.0,60.4,30.18,NE,46,0.0,0.0,98,0.00,,,0.27,Wunderground v.1.15,2015-05-05 08:25:00,
2015-05-05 04:30:00,61.0,60.4,30.18,NE,46,0.0,0.0,98,0.00,,,0.27,Wunderground v.1.15,2015-05-05 08:30:00,
2015-05-05 04:35:00,60.9,60.3,30.18,NE,46,0.0,0.0,98,0.00,,,0.27,Wunderground v.1.15,2015-05-05 08:35:00,
2015-05-05 04:40:00,60.9,60.3,30.18,NE,46,1.0,2.0,98,0.00,,,0.27,Wunderground v.1.15,2015-05-05 08:40:00,
2015-05-05 04:45:00,60.9,60.3,30.18,NE,46,0.0,2.0,98,0.00,,,0.27,Wunderground v.1.15,2015-05-05 08:45:00,
2015-05-05 04:50:00,61.0,60.4,30.18,North,350,2.0,2.0,98,0.00,,,0.27,Wunderground v.1.15,2015-05-05 08:50:00,
2015-05-05 04:55:00,60.9,60.3,30.18,North,350,0.0,2.0,98,0.00,,,0.27,Wunderground v.1.15,2015-05-05 08:55:00,